TimeEST,TemperatureF,Dew PointF,Humidity,Sea Level PressureIn,VisibilityMPH,Wind Direction,Wind SpeedMPH,Gust SpeedMPH,PrecipitationIn,Events,Conditions,WindDirDegrees,DateUTC
12:51 AM,34.0,30.0,85,30.51,6.0,Calm,Calm,-,N/A,,Clear,0,2012-11-17 05:51:00
1:51 AM,32.0,30.2,93,30.49,5.0,NNE,3.5,-,N/A,,Clear,30,2012-11-17 06:51:00
2:51 AM,30.9,28.9,92,30.52,5.0,North,4.6,-,N/A,,Clear,350,2012-11-17 07:51:00
3:51 AM,30.0,28.0,92,30.52,4.0,Calm,Calm,-,N/A,,Clear,0,2012-11-17 08:51:00
4:51 AM,30.0,28.0,92,30.53,5.0,Calm,Calm,-,N/A,,Clear,0,2012-11-17 09:51:00
5:51 AM,30.0,27.0,88,30.54,5.0,Calm,Calm,-,N/A,,Clear,0,2012-11-17 10:51:00
6:51 AM,28.9,26.1,89,30.55,6.0,Calm,Calm,-,N/A,,Clear,0,2012-11-17 11:51:00
7:51 AM,32.0,28.0,85,30.57,7.0,NNW,3.5,-,N/A,,Partly Cloudy,340,2012-11-17 12:51:00
8:51 AM,35.1,30.0,82,30.58,7.0,NNW,3.5,-,N/A,,Partly Cloudy,330,2012-11-17 13:51:00
9:51 AM,43.0,32.0,65,30.59,10.0,Calm,Calm,-,N/A,,Partly Cloudy,0,2012-11-17 14:51:00
10:51 AM,51.8,32.0,47,30.57,10.0,ESE,8.1,-,N/A,,Partly Cloudy,120,2012-11-17 15:51:00
11:51 AM,53.1,28.0,38,30.57,10.0,East,9.2,-,N/A,,Partly Cloudy,100,2012-11-17 16:51:00
12:51 PM,55.0,28.9,37,30.55,10.0,East,8.1,-,N/A,,Partly Cloudy,100,2012-11-17 17:51:00
1:51 PM,57.0,28.9,34,30.53,10.0,ENE,6.9,-,N/A,,Partly Cloudy,60,2012-11-17 18:51:00
2:51 PM,57.0,28.0,33,30.51,10.0,ENE,10.4,17.3,N/A,,Partly Cloudy,70,2012-11-17 19:51:00
3:51 PM,57.0,28.9,34,30.50,10.0,ENE,8.1,-,N/A,,Partly Cloudy,60,2012-11-17 20:51:00
4:51 PM,53.1,30.0,41,30.51,10.0,East,4.6,-,N/A,,Clear,80,2012-11-17 21:51:00
5:51 PM,51.1,28.9,43,30.51,10.0,ENE,4.6,-,N/A,,Clear,60,2012-11-17 22:51:00
6:51 PM,48.9,28.9,46,30.52,10.0,NE,4.6,-,N/A,,Clear,50,2012-11-17 23:51:00
7:51 PM,46.9,28.9,50,30.52,10.0,NE,3.5,-,N/A,,Clear,40,2012-11-18 00:51:00
8:51 PM,44.1,30.0,58,30.53,10.0,Calm,Calm,-,N/A,,Clear,0,2012-11-18 01:51:00
9:51 PM,44.1,28.9,55,30.51,10.0,ENE,5.8,-,N/A,,Clear,60,2012-11-18 02:51:00
10:51 PM,44.1,28.9,55,30.50,10.0,ENE,5.8,-,N/A,,Clear,60,2012-11-18 03:51:00
11:51 PM,43.0,28.0,56,30.48,10.0,North,3.5,-,N/A,,Clear,10,2012-11-18 04:51:00